Regional Weather Roundup
Issued by NWS Columbia, SC

Home | Current Version | Previous Version | Text Only | Print | Product List | Glossary On
Versions: 1 2 3 4 5 6 7 8 9 10 11 12 13 14 15 16 17 18 19 20 21 22 23 24 25 26 27 28 29 30 31 32 33 34 35 36 37 38 39 40 41
000
ASUS42 KCAE 270610
RWRCAE
REGIONAL WEATHER ROUNDUP
NATIONAL WEATHER SERVICE COLUMBIA SC
100 AM EST SAT DEC 27 2014

NOTE: "FAIR" INDICATES FEW OR NO CLOUDS BELOW 12,000 FEET WITH NO
SIGNIFICANT WEATHER AND/OR OBSTRUCTIONS TO VISIBILITY.

NOT ALL STATIONS ARE QUALITY CONTROLLED BY THE NATIONAL
WEATHER SERVICE. USE DATA WITH CAUTION...ESPECIALLY
DEWPOINT OBSERVATIONS.

SCZ001>056-GAZ040-063>065-077-270700-
...UPSTATE SOUTH CAROLINA...

CITY           SKY/WX    TMP DP  RH WIND       PRES   REMARKS
ANDERSON       CLEAR     38  35  89 CALM      30.29F
6HR MIN TEMP:  37; 6HR MAX TEMP:  48;

LIBERTY        FAIR      40  50 100 MISG      30.29F
6HR MIN TEMP:  27; 6HR MAX TEMP:  62;

SPARTANBURG    FAIR      41  41 100 CALM      30.28F
CLEMSON        CLEAR     45  40  82 N5        30.30F
6HR MIN TEMP:  43; 6HR MAX TEMP:  53;

GREENVILLE     PTCLDY    41  34  76 NW3       30.30F
6HR MIN TEMP:  41; 6HR MAX TEMP:  51;

GREENWOOD      PTCLDY    34  32  92 CALM      30.31F
6HR MIN TEMP:  33; 6HR MAX TEMP:  46;

GREER          PTCLDY    40  35  83 CALM      30.28F
6HR MIN TEMP:  39; 6HR MAX TEMP:  49;

ROCK HILL      PTCLDY    35  33  92 CALM      30.30F
6HR MIN TEMP:  33; 6HR MAX TEMP:  45;

CHESTER        FAIR      43  36  75 CALM      30.30F
LAURENS        FAIR      36  36 100 NW5       30.29F WCI  32


...CENTRAL SOUTH CAROLINA...

CITY           SKY/WX    TMP DP  RH WIND       PRES   REMARKS
COLUMBIA APT   CLEAR     34  31  88 CALM      30.30F
6HR MIN TEMP:  34; 6HR MAX TEMP:  46;

COLUMBIA OWENS CLEAR     38  34  85 CALM      30.31F
6HR MIN TEMP:  38; 6HR MAX TEMP:  47;

DARLINGTON     CLEAR     36  30  80 CALM      30.31F
6HR MIN TEMP:  36; 6HR MAX TEMP:  45;

FLORENCE       PTCLDY    38  35  89 CALM      30.31F
6HR MIN TEMP:  37; 6HR MAX TEMP:  47;

ORANGEBURG     PTCLDY    37  35  92 CALM      30.30F
6HR MIN TEMP:  37; 6HR MAX TEMP:  47;

NEWBERRY       FAIR      34 N/A N/A CALM      30.32F
AIKEN          FAIR      36  36 100 CALM      30.33S
BARNWELL         N/A     37  36  93 CALM      30.30F
MANNING        FAIR      37 N/A N/A CALM      30.31F
CAMDEN         FAIR      32  32 100 CALM      30.31F
LANCASTER      HVY RAIN  36  36 100 CALM      30.31F
WINNSBORO      FAIR      43  36  75 SE5       30.28F


...EASTERN AND COASTAL SOUTH CAROLINA...

CITY           SKY/WX    TMP DP  RH WIND       PRES   REMARKS
MYRTLE BEACH   CLEAR     39  37  93 NW3       30.32F
6HR MIN TEMP:  39; 6HR MAX TEMP:  46;

N MYRTLE BCH   CLEAR     38  37  97 CALM      30.31F FOG
6HR MIN TEMP:  38; 6HR MAX TEMP:  46;

CONWAY         FAIR      36  36 100 CALM      30.33S FOG
MARION         FAIR      37  37 100 CALM      30.33F
HARTSVILLE     FAIR      39  39 100 CALM      30.30F
FLORENCE       PTCLDY    38  35  89 CALM      30.31F
6HR MIN TEMP:  37; 6HR MAX TEMP:  47;

DARLINGTON     CLEAR     36  30  80 CALM      30.31F
6HR MIN TEMP:  36; 6HR MAX TEMP:  45;

CHARLESTON APT CLEAR     43  43 100 CALM      30.30F
6HR MIN TEMP:  41; 6HR MAX TEMP:  53;

MOUNT PLEASANT FAIR      43  43 100 CALM      30.31S
WALTERBORO     CLEAR     37 N/A N/A CALM      30.31F
BEAUFORT       CLEAR     46  44  93 N3        30.30F
6HR MIN TEMP:  42; 6HR MAX TEMP:  50;



...EASTERN GEORGIA...

CITY           SKY/WX    TMP DP  RH WIND       PRES   REMARKS
AUGUSTA BUSH F CLEAR     33  32  96 CALM      30.30F FOG
6HR MIN TEMP:  32; 6HR MAX TEMP:  43;

AUGUSTA DANIEL CLEAR     45  38  76 CALM      30.29F
6HR MIN TEMP:  44; 6HR MAX TEMP:  54;

THOMSON        PTCLDY    33  33 100 CALM      30.32F
6HR MIN TEMP:  33; 6HR MAX TEMP:  45;

WASHINGTON     FAIR      37  37 100 CALM      30.29S
CLAXTON        FAIR      37  37 100 CALM      30.30F
SYLVANIA       CLEAR     38  38 100 CALM      30.30F
6HR MIN TEMP:  38; 6HR MAX TEMP:  47;

STATESBORO     CLEAR     37  37 100 CALM      30.30S
6HR MIN TEMP:  37; 6HR MAX TEMP:  43;

SAVANNAH       MOCLDY    43  41  93 CALM      30.30F
6HR MIN TEMP:  43; 6HR MAX TEMP:  53;



...SOUTHERN NORTH CAROLINA...

CITY           SKY/WX    TMP DP  RH WIND       PRES   REMARKS
CHARLOTTE      MOCLDY    41  33  73 CALM      30.30F
6HR MIN TEMP:  37; 6HR MAX TEMP:  49;

MONROE         CLEAR     37  32  82 CALM      30.29F
6HR MIN TEMP:  35; 6HR MAX TEMP:  47;

WADESBORO      CLEAR     30  28  93 CALM      30.30F
6HR MIN TEMP:  30; 6HR MAX TEMP:  42;

ROCKINGHAM     CLEAR     33  32  96 CALM      30.30F
6HR MIN TEMP:  33; 6HR MAX TEMP:  48;

RUTHERFORDTON  PTCLDY    36  35  96 CALM      30.29F
6HR MIN TEMP:  35; 6HR MAX TEMP:  49;

ASHEVILLE      PTCLDY    37  31  78 SE3       30.28F
6HR MIN TEMP:  34; 6HR MAX TEMP:  48;


$$



USA.gov is the U.S. government's official web portal to all federal, state and local government web resources and services.